"2004/01/01",  6.5, 10.2,  2.4
"2004/01/02",  6.8, 11.4,  1.7
"2004/01/03",  8.0, 13.6,  2.8
"2004/01/04",  5.8,  8.5,  2.7
"2004/01/05",  4.4,  7.4,  0.8
"2004/01/06",  4.4,  7.9,  0.2
"2004/01/07",  3.7,  6.7,  1.2
"2004/01/08",  3.2,  6.3,  0.0
"2004/01/09",  3.2,  8.2, -1.8
"2004/01/10",  3.1,  9.4, -2.9
"2004/01/11",  4.1,  7.5,  0.1
"2004/01/12",  2.8,  6.5, -3.3
"2004/01/13",  4.9,  9.4,  2.9
"2004/01/14",  2.8,  5.2, -0.1
"2004/01/15",  2.9,  6.5, -0.2
"2004/01/16",  1.9,  5.0, -1.9
"2004/01/17",  2.3,  4.5, -0.2
"2004/01/18",  3.5,  8.3,  0.8
"2004/01/19",  3.4,  5.5,  1.3
"2004/01/20",  4.6,  9.1,  0.0
"2004/01/21",  6.1, 10.0,  2.3
"2004/01/22",  2.7,  7.3, -1.0
"2004/01/23",  3.1,  8.3, -2.0
"2004/01/24",  1.6,  4.3, -2.1
"2004/01/25",  2.7,  7.3, -3.5
"2004/01/26",  2.3,  7.4, -3.1
"2004/01/27",  2.6,  5.9, -0.6
"2004/01/28",  3.9, 10.5, -2.1
"2004/01/29",  4.9,  9.2,  1.3
"2004/01/30",  4.4,  8.8,  1.7
"2004/01/31",  4.0,  8.9,  0.0
"2004/02/01",  3.5,  8.1, -2.4
"2004/02/02",  4.9,  6.3,  3.7
"2004/02/03",  5.1,  8.5,  2.7
"2004/02/04",  4.5,  9.6,  0.8
"2004/02/05",  4.6,  9.0,  1.0
"2004/02/06",  3.3,  8.8, -1.2
"2004/02/07",  3.7,  8.6,  0.0
"2004/02/08",  3.0, 10.3, -3.4
"2004/02/09",  4.4,  9.8, -1.2
"2004/02/10",  2.4,  4.8,  0.0
"2004/02/11",  2.7,  6.8, -2.0
"2004/02/12",  5.1, 12.8, -1.7
"2004/02/13",  4.9,  8.5, -0.5
"2004/02/14",  8.9, 14.3,  4.3
"2004/02/15",  7.6, 11.6,  2.8
"2004/02/16",  5.7, 11.9,  0.4
"2004/02/17",  6.6, 12.7,  0.7
"2004/02/18",  7.4, 12.1,  3.4
"2004/02/19",  6.5, 13.9, -0.2
"2004/02/20",  6.0,  7.5,  3.8
"2004/02/21", 10.0, 17.9,  2.9
"2004/02/22", 13.4, 20.6,  4.2
"2004/02/23", 10.4, 16.6,  2.2
"2004/02/24",  6.1, 10.5, -0.9
"2004/02/25",  8.5, 14.3,  4.1
"2004/02/26",  9.1, 18.6,  1.6
"2004/02/27",  5.7, 10.4,  1.5
"2004/02/28",  5.9, 10.1,  1.2
"2004/02/29",  9.1, 15.8,  4.1
"2004/03/01",  3.6,  8.6,  0.2
"2004/03/02",  3.2,  6.3, -0.9
"2004/03/03",  3.2,  5.8,  0.2
"2004/03/04",  4.6,  9.4,  2.1
"2004/03/05",  5.4, 11.4, -1.8
"2004/03/06",  7.4, 13.2,  3.2
"2004/03/07",  3.8,  8.9, -1.2
"2004/03/08",  4.1,  9.9, -2.0
"2004/03/09",  6.4, 12.0,  1.6
"2004/03/10", 10.6, 16.8,  3.8
"2004/03/11", 15.4, 20.1,  9.6
"2004/03/12"," * "," * "," * "
"2004/03/13",  8.5, 15.2,  1.8
"2004/03/14",  9.1, 15.4,  1.4
"2004/03/15",  8.3, 12.5,  5.9
"2004/03/16",  9.0, 14.6,  5.3
"2004/03/17", 15.8, 21.1,  8.3
"2004/03/18", 11.3, 18.5,  4.2
"2004/03/19",  5.0,  7.2,  3.0
"2004/03/20",  3.9,  6.2,  2.1
"2004/03/21",  5.7,  9.9, -0.2
"2004/03/22",  5.6,  7.8,  3.5
"2004/03/23",  5.4,  7.0,  3.0
"2004/03/24",  6.5,  9.6,  3.4
"2004/03/25",  8.3, 10.2,  5.9
"2004/03/26",  8.1, 10.7,  5.2
"2004/03/27",  8.4, 15.2,  2.1
"2004/03/28",  9.6, 14.7,  3.1
"2004/03/29", 13.6, 20.0,  7.2
"2004/03/30", 14.9, 18.4, 12.5
"2004/03/31", 14.5, 20.5,  9.9
"2004/04/01", 11.9, 17.0,  7.7
"2004/04/02", 15.3, 20.8, 12.6
"2004/04/03", 13.2, 18.0,  9.0
"2004/04/04",  6.3,  9.2,  3.5
"2004/04/05",  7.9, 11.0,  3.8
"2004/04/06", 12.7, 19.1,  6.4
"2004/04/07", 15.2, 21.0,  9.5
"2004/04/08",  9.6, 12.1,  7.2
"2004/04/09", 13.2, 19.3,  7.4
"2004/04/10", 13.8, 17.4,  9.5
"2004/04/11", 12.6, 18.0, 10.3
"2004/04/12", 16.6, 24.3,  9.1
"2004/04/13",  9.3, 11.0,  8.0
"2004/04/14", 12.0, 15.8,  8.4
"2004/04/15", 12.9, 15.5, 10.5
"2004/04/16", 16.1, 22.2, 10.5
"2004/04/17", 18.2, 26.0, 11.7
"2004/04/18", 14.6, 20.8,  9.6
"2004/04/19", 17.6, 21.0, 14.6
"2004/04/20", 20.4, 27.5, 16.2
"2004/04/21", 17.4, 24.3, 10.4
"2004/04/22", 19.8, 27.5, 13.4
"2004/04/23", 11.6, 19.8,  9.4
"2004/04/24", 10.3, 14.6,  6.2
"2004/04/25", 11.8, 17.4,  5.7
"2004/04/26", 13.2, 19.1,  8.7
"2004/04/27", 17.9, 22.8, 12.1
"2004/04/28", 13.0, 19.3,  9.5
"2004/04/29", 13.9, 19.7,  9.5
"2004/04/30", 17.6, 24.6, 10.7
"2004/05/01", 14.3, 19.4,  9.5
"2004/05/02", 10.2, 11.9,  9.0
"2004/05/03", 14.3, 18.7,  9.7
"2004/05/04", 20.6, 23.3, 15.4
"2004/05/05", 11.9, 15.5, 11.0
"2004/05/06", 12.2, 13.8, 10.5
"2004/05/07", 15.5, 20.5, 11.1
"2004/05/08", 15.9, 19.2, 13.7
"2004/05/09", 16.5, 20.4, 13.9
"2004/05/10", 17.9, 21.0, 15.2
"2004/05/11", 21.6, 29.7, 16.4
"2004/05/12", 17.4, 19.0, 15.8
"2004/05/13", 21.0, 24.3, 15.5
"2004/05/14", 19.4, 23.2, 14.5
"2004/05/15", 16.5, 19.8, 13.5
"2004/05/16", 16.7, 17.9, 15.3
"2004/05/17", 20.4, 25.2, 17.2
"2004/05/18", 18.2, 20.2, 16.8
"2004/05/19", 17.1, 20.5, 14.9
"2004/05/20", 14.7, 15.8, 13.5
"2004/05/21", 15.2, 22.0, 12.1
"2004/05/22", 11.2, 12.4, 10.4
"2004/05/23", 11.5, 12.6, 10.5
"2004/05/24", 14.8, 19.4, 11.7
"2004/05/25", 16.8, 21.2, 11.7
"2004/05/26", 19.9, 25.0, 14.9
"2004/05/27", 20.2, 22.8, 18.2
"2004/05/28", 20.9, 24.2, 18.2
"2004/05/29", 22.9, 27.5, 18.6
"2004/05/30", 24.4, 29.1, 19.3
"2004/05/31", 24.7, 28.7, 16.8
"2004/06/01", 15.3, 16.9, 13.3
"2004/06/02", 17.5, 21.4, 13.3
"2004/06/03", 18.2, 21.6, 13.8
"2004/06/04", 19.3, 25.7, 12.2
"2004/06/05", 21.3, 27.1, 15.3
"2004/06/06", 19.4, 22.8, 16.4
"2004/06/07", 21.6, 26.9, 17.3
"2004/06/08", 18.1, 23.4, 14.4
"2004/06/09", 16.1, 18.1, 14.5
"2004/06/10", 20.1, 23.9, 16.3
"2004/06/11", 18.5, 21.1, 15.5
"2004/06/12", 19.3, 24.7, 15.7
"2004/06/13", 19.0, 20.9, 17.0
"2004/06/14", 20.2, 24.1, 15.9
"2004/06/15", 22.7, 30.1, 16.0
"2004/06/16", 16.8, 19.1, 15.0
"2004/06/17", 19.3, 24.7, 14.8
"2004/06/18", 23.8, 28.2, 19.5
"2004/06/19", 24.7, 29.5, 20.9
"2004/06/20", 26.5, 29.8, 23.2
"2004/06/21", 25.6, 27.9, 23.7
"2004/06/22", 27.1, 30.5, 23.3
"2004/06/23", 26.0, 29.9, 22.8
"2004/06/24", 26.3, 31.5, 22.8
"2004/06/25", 24.3, 27.0, 20.2
"2004/06/26", 19.4, 23.5, 17.6
"2004/06/27", 20.4, 24.0, 17.5
"2004/06/28", 21.3, 26.0, 18.8
"2004/06/29", 25.3, 31.3, 20.2
"2004/06/30", 25.3, 27.0, 23.8
"2004/07/01", 22.6, 25.3, 19.3
"2004/07/02", 19.4, 21.2, 18.0
"2004/07/03", 19.2, 22.2, 16.7
"2004/07/04", 22.7, 28.3, 16.8
"2004/07/05", 26.1, 29.6, 22.7
"2004/07/06", 27.8, 32.2, 24.3
"2004/07/07", 27.5, 32.2, 23.3
"2004/07/08", 25.0, 33.0, 21.4
"2004/07/09", 26.8, 33.3, 21.7
"2004/07/10", 27.4, 32.9, 24.5
"2004/07/11", 25.4, 31.1, 21.7
"2004/07/12", 22.7, 25.0, 21.3
"2004/07/13", 24.2, 32.3, 19.8
"2004/07/14", 23.1, 28.2, 19.8
"2004/07/15", 23.7, 27.6, 21.6
"2004/07/16", 25.2, 32.4, 22.1
"2004/07/17", 27.0, 33.7, 22.4
"2004/07/18", 27.7, 34.4, 21.9
"2004/07/19", 28.0, 33.0, 24.8
"2004/07/20", 29.9, 37.5, 24.6
"2004/07/21", 29.2, 32.7, 25.5
"2004/07/22", 25.2, 27.2, 22.6
"2004/07/23", 26.1, 31.0, 22.8
"2004/07/24", 28.1, 32.2, 24.4
"2004/07/25", 28.7, 33.6, 25.2
"2004/07/26", 27.3, 32.0, 24.5
"2004/07/27", 26.8, 31.5, 23.4
"2004/07/28", 24.8, 27.1, 23.4
"2004/07/29", 25.6, 28.2, 23.9
"2004/07/30", 26.7, 29.7, 24.9
"2004/07/31", 26.9, 29.9, 24.5
"2004/08/01", 26.7, 30.8, 23.8
"2004/08/02", 26.3, 30.5, 23.3
"2004/08/03", 26.8, 30.9, 23.5
"2004/08/04", 26.8, 30.9, 24.4
"2004/08/05", 27.3, 31.3, 24.9
"2004/08/06", 27.9, 32.9, 24.9
"2004/08/07", 26.7, 31.3, 23.9
"2004/08/08", 26.8, 32.3, 23.8
"2004/08/09", 27.3, 33.3, 23.3
"2004/08/10", 27.9, 32.9, 23.5
"2004/08/11", 26.0, 28.6, 23.7
"2004/08/12", 26.7, 31.3, 23.0
"2004/08/13", 27.6, 32.2, 23.6
"2004/08/14", 27.2, 32.6, 23.4
"2004/08/15", 19.6, 24.3, 17.2
"2004/08/16", 23.0, 30.1, 16.6
"2004/08/17", 23.6, 27.3, 22.2
"2004/08/18", 28.1, 32.6, 22.5
"2004/08/19", 29.2, 32.5, 26.2
"2004/08/20", 29.2, 34.1, 24.4
"2004/08/21", 23.7, 26.8, 22.0
"2004/08/22", 23.2, 25.5, 21.1
"2004/08/23", 21.1, 22.6, 20.3
"2004/08/24", 24.1, 30.0, 19.1
"2004/08/25", 23.8, 25.2, 22.2
"2004/08/26", 23.6, 27.1, 21.7
"2004/08/27", 22.0, 24.0, 20.4
"2004/08/28", 21.3, 22.1, 20.7
"2004/08/29", 20.4, 21.2, 19.7
"2004/08/30", 24.7, 30.6, 20.6
"2004/08/31", 28.3, 31.2, 24.9
"2004/09/01", 27.1, 32.6, 22.7
"2004/09/02", 24.1, 26.1, 21.9
"2004/09/03", 24.1, 27.9, 21.9
"2004/09/04", 22.5, 24.3, 20.4
"2004/09/05", 21.8, 23.3, 20.1
"2004/09/06", 24.9, 28.5, 21.7
"2004/09/07", 27.3, 30.5, 25.1
"2004/09/08", 28.4, 31.2, 24.9
"2004/09/09", 23.7, 26.3, 20.6
"2004/09/10", 22.7, 25.7, 20.5
"2004/09/11", 21.6, 23.4, 19.8
"2004/09/12", 22.1, 25.2, 19.5
"2004/09/13", 25.0, 30.0, 21.1
"2004/09/14", 26.4, 33.1, 21.9
"2004/09/15", 20.7, 22.0, 18.6
"2004/09/16", 20.0, 24.0, 16.9
"2004/09/17", 23.4, 28.8, 18.5
"2004/09/18", 24.8, 29.5, 21.7
"2004/09/19", 25.6, 29.8, 22.9
"2004/09/20", 25.3, 29.4, 22.3
"2004/09/21", 26.9, 30.5, 23.9
"2004/09/22", 24.3, 29.6, 20.6
"2004/09/23", 21.8, 24.1, 20.5
"2004/09/24", 21.3, 23.7, 20.2
"2004/09/25", 21.8, 23.5, 21.0
"2004/09/26", 20.0, 21.6, 18.9
"2004/09/27", 19.1, 19.8, 18.6
"2004/09/28", 20.3, 22.8, 18.9
"2004/09/29", 21.2, 23.8, 20.1
"2004/09/30", 24.7, 28.5, 20.2
"2004/10/01", 19.7, 24.0, 15.5
"2004/10/02", 21.2, 27.4, 15.8
"2004/10/03", 18.1, 22.6, 16.4
"2004/10/04", 17.7, 18.8, 16.7
"2004/10/05", 17.6, 18.2, 16.6
"2004/10/06", 17.9, 21.3, 15.2
"2004/10/07", 17.6, 23.1, 12.7
"2004/10/08", 16.7, 18.4, 15.1
"2004/10/09", 18.2, 19.3, 17.0
"2004/10/10", 18.1, 19.7, 17.0
"2004/10/11", 18.2, 19.2, 17.0
"2004/10/12", 18.9, 21.2, 17.3
"2004/10/13", 18.4, 18.9, 16.7
"2004/10/14", 16.2, 17.6, 14.4
"2004/10/15", 16.2, 21.4, 11.0
"2004/10/16", 14.9, 16.4, 13.1
"2004/10/17", 15.2, 16.8, 12.2
"2004/10/18", 15.1, 18.9, 10.6
"2004/10/19", 16.0, 16.8, 14.7
"2004/10/20", 17.9, 24.2, 16.5
"2004/10/21", 17.3, 23.9, 13.5
"2004/10/22", 17.4, 23.5, 12.8
"2004/10/23", 16.2, 18.1, 13.2
"2004/10/24", 14.6, 16.6, 11.5
"2004/10/25", 16.0, 19.4, 14.0
"2004/10/26", 14.4, 17.1, 11.8
"2004/10/27", 12.0, 13.7, 10.4
"2004/10/28", 11.6, 14.2,  8.8
"2004/10/29", 12.3, 16.3,  5.9
"2004/10/30", 13.7, 16.0, 11.8
"2004/10/31", 17.1, 20.3, 15.4
"2004/11/01", 17.3, 18.7, 15.9
"2004/11/02", 17.2, 20.4, 15.9
"2004/11/03", 17.9, 23.1, 13.6
"2004/11/04", 16.1, 20.3, 10.8
"2004/11/05", 15.1, 18.8,  9.7
"2004/11/06", 16.2, 19.8, 13.8
"2004/11/07", 15.1, 19.3, 10.3
"2004/11/08", 15.4, 18.6, 13.5
"2004/11/09", 15.5, 19.6, 11.0
"2004/11/10", 15.4, 19.4,  9.6
"2004/11/11", 17.5, 20.6, 13.6
"2004/11/12", 17.8, 20.8, 14.8
"2004/11/13", 13.9, 15.7, 11.1
"2004/11/14", 12.1, 13.3, 10.5
"2004/11/15", 11.7, 13.0, 10.2
"2004/11/16", 12.3, 15.2, 10.0
"2004/11/17", 12.4, 16.6,  8.1
"2004/11/18", 12.7, 14.7, 10.1
"2004/11/19", 13.2, 14.0, 12.1
"2004/11/20", 14.0, 17.1, 11.8
"2004/11/21", 13.2, 17.0,  8.5
"2004/11/22", 12.8, 17.5,  9.1
"2004/11/23", 12.2, 16.2,  6.4
"2004/11/24", 11.9, 17.2,  6.6
"2004/11/25", 12.8, 18.0,  7.9
"2004/11/26", 11.9, 18.5,  7.3
"2004/11/27", 15.2, 19.4,  7.7
"2004/11/28", 11.1, 15.8,  5.7
"2004/11/29", 10.1, 13.4,  5.8
"2004/11/30",  8.8, 10.8,  6.4
"2004/12/01",  8.0, 12.6,  3.4
"2004/12/02",  9.7, 13.7,  3.9
"2004/12/03",  8.1, 14.0,  0.7
"2004/12/04",  8.2, 12.4,  3.1
"2004/12/05", 17.8, 24.0, 10.4
"2004/12/06", 10.3, 13.0,  6.3
"2004/12/07",  8.8, 15.7,  2.5
"2004/12/08",  9.7, 15.0,  4.3
"2004/12/09",  9.6, 10.9,  8.5
"2004/12/10", 11.0, 14.8,  9.0
"2004/12/11",  9.5, 15.9,  4.5
"2004/12/12",  7.6,  8.9,  6.7
"2004/12/13",  9.6, 14.6,  5.8
"2004/12/14",  8.0, 10.0,  6.0
"2004/12/15",  9.4, 12.0,  7.0
"2004/12/16", 12.2, 17.2,  7.8
"2004/12/17",  8.2, 11.6,  4.5
"2004/12/18",  8.3, 12.5,  5.9
"2004/12/19",  8.9, 11.7,  5.2
"2004/12/20",  9.2, 10.9,  7.3
"2004/12/21",  9.3, 12.3,  6.6
"2004/12/22",  7.4, 11.6,  4.6
"2004/12/23",  6.3, 10.3,  2.5
"2004/12/24",  5.3,  8.8,  0.8
"2004/12/25",  5.9,  9.3,  0.6
"2004/12/26",  5.3,  8.9, -0.1
"2004/12/27",  5.2,  9.2,  1.1
"2004/12/28",  4.4,  8.6, -1.2
"2004/12/29",  3.0,  5.5,  0.1
"2004/12/30",  3.3,  6.9, -0.4
"2004/12/31",  2.7,  5.7,  0.5
